Location: Cutler
(25.6150°N, 80.3110°W)
Time: 08:39:29
(UTC-05:00)

Hubble Space Telescope - Visible Passes

Search period start: 19 February 2018 00:00
Search period end: 01 March 2018 00:00
Orbit: 537 x 541 km, 28.5° (Epoch: 18 February)

Date Brightness Start Highest point End Pass type
(mag) Time Alt. Az. Time Alt. Az. Time Alt. Az.
19 Feb 4.0 04:15:58 12° E 04:15:58 12° E 04:16:17 10° E visible
19 Feb 0.7 05:51:20 23° WSW 05:53:50 83° SSE 05:57:59 10° ENE visible
20 Feb 0.7 05:41:50 33° W 05:43:36 84° N 05:47:44 10° ENE visible
21 Feb 0.7 05:32:15 46° W 05:33:21 73° NNW 05:37:29 10° ENE visible
22 Feb 0.7 05:22:37 58° NW 05:23:08 65° N 05:27:14 10° ENE visible
23 Feb 0.9 05:12:56 60° N 05:12:56 60° N 05:17:00 10° ENE visible
24 Feb 1.3 05:03:15 52° NNE 05:03:15 52° NNE 05:06:46 10° ENE visible
25 Feb 1.8 04:53:32 42° NE 04:53:32 42° NE 04:56:33 10° ENE visible
26 Feb 2.3 04:43:51 33° ENE 04:43:51 33° ENE 04:46:20 10° E visible
26 Feb 0.8 06:19:29 10° WNW 06:23:37 86° SSW 06:27:45 10° ESE visible
27 Feb 2.8 04:34:10 26° ENE 04:34:10 26° ENE 04:36:08 10° E visible
27 Feb 0.8 06:09:32 12° W 06:13:20 72° SSW 06:17:27 10° ESE visible
28 Feb 3.3 04:24:32 20° E 04:24:32 20° E 04:25:56 10° E visible
28 Feb 1.0 05:59:54 16° W 06:03:04 58° SSW 06:07:08 10° ESE visible
